Location: Pouilly
(47.2624°N, 4.5558°E)
Time: 17:24:01
(UTC+00:00)

Cosmos 1892 - Pass Details

Date: 07 June 2020
Orbit: 504 x 524 km, 82.5° (Epoch: 08 July)

Event Time Altitude Azimuth Distance (km) Brightness Sun altitude
Exits shadow 01:21:46 15° 144° (SE) 1,464 4.7 -16.3°
Maximum altitude 01:24:18 29° 91° (E) 964 4.3 -16.2°
Drops below altitude 10° 01:27:36 10° 30° (NNE) 1,735 6.7 -15.9°
Sets 01:29:54 0° 19° (NNE) 2,623 8.1 -15.8°
